This demonstration page uses our WeatherBlox Daily Observations layout. Learn more.

Left ArrowRight Arrow

39.51506, -84.39828

Hourly Observations for September 15, 2021

Temp ( °F °C ) Dew Point ( °F °C ) Humidity (%) Winds ( mph kmh ) Pressure ( in mb ) Visibility ( mi km ) Precip ( " mm )
12:15 am 00:15 Partly Cloudy 76 24.7 71 21.5 82 82 SW 6 9 29.89 1012 10 16 N/A
12:35 am 00:35 Partly Cloudy 76 24.7 71 21.7 83 83 WSW 6 9 29.89 1012 10 16 N/A
12:55 am 00:55 Mostly Cloudy 76 24.7 71 21.7 83 83 SW 6 9 29.89 1012 10 16 N/A
1:15 am 01:15 Mostly Cloudy 74 23.6 67 19.7 79 79 N 12 19 29.91 1013 10 16 N/A
1:35 am 01:35 Cloudy 73 23 66 19.1 79 79 NNW 7 11 29.93 1013 10 16 N/A
1:55 am 01:55 Cloudy with Light Rain 70 20.9 68 20 95 95 WNW 10 17 29.93 1014 7 11 0.02 0.51
2:15 am 02:15 Cloudy with Light Rain 69 20.4 68 20.1 98 98 E 7 11 29.90 1013 7 11 0.03 0.76
2:35 am 02:35 Partly Cloudy 68 20 68 20 100 100 ENE 3 6 29.90 1013 10 16 0.03 0.76
2:55 am 02:55 Clear 68 20 N/A N/A N N/A 29.89 1012 7 11 0.03 0.76
3:15 am 03:15 Clear with Nearby Thunderstorms 66 19 N/A N/A N N/A 29.90 1012 10 16 N/A
3:35 am 03:35 Clear with Nearby Thunderstorms 66 19 N/A N/A S 5 7 29.90 1012 10 16 N/A
3:55 am 03:55 Clear with Nearby Thunderstorms 68 20 N/A N/A N N/A 29.89 1012 10 16 N/A
4:15 am 04:15 Clear with Nearby Thunderstorms 68 20 N/A N/A W 5 7 29.90 1013 10 16 N/A
4:35 am 04:35 Partly Cloudy 66 19 N/A N/A N N/A 29.90 1012 10 16 N/A
4:55 am 04:55 Mostly Cloudy with Thunderstorms 68 20 N/A N/A WSW 7 11 29.92 1013 10 16 0.01 0.25
5:15 am 05:15 Mostly Cloudy with Nearby Thunderstorms 68 20 N/A N/A N 5 7 29.91 1013 7 11 0.05 1.27
5:35 am 05:35 Cloudy with Nearby Thunderstorms 66 19 N/A N/A N N/A 29.92 1013 3 5 0.10 2.54
5:55 am 05:55 Partly Cloudy with Light Rain 68 20 N/A N/A SE 6 9 29.89 1012 10 16 0.10 2.54
6:15 am 06:15 Mostly Cloudy 68 20 N/A N/A SSE 5 7 29.88 1012 10 16 N/A
6:35 am 06:35 Partly Cloudy with Nearby Thunderstorms 68 20 N/A N/A N N/A 29.89 1012 10 16 N/A
6:55 am 06:55 Partly Cloudy 66 19 N/A N/A W 5 7 29.92 1013 10 16 N/A
7:15 am 07:15 Clear 66 19 N/A N/A WNW 5 7 29.93 1013 10 16 N/A
7:35 am 07:35 Partly Cloudy 66 19 N/A N/A N N/A 29.93 1013 10 16 N/A
7:55 am 07:55 Mostly Cloudy with Light Rain 66 19 N/A N/A N N/A 29.94 1014 10 16 0.01 0.25
8:15 am 08:15 Mostly Cloudy 68 20 N/A N/A N N/A 29.92 1013 10 16 N/A
8:35 am 08:35 Cloudy 68 20 N/A N/A N N/A 29.92 1013 10 16 N/A
8:55 am 08:55 Cloudy 68 20 N/A N/A N N/A 29.94 1014 10 16 N/A
9:15 am 09:15 Cloudy 68 20 N/A N/A N N/A 29.94 1014 10 16 N/A
9:35 am 09:35 Cloudy with Light Rain 68 20 N/A N/A N N/A 29.96 1015 10 16 N/A
9:55 am 09:55 Cloudy 68 20 N/A N/A N N/A 29.97 1015 7 11 N/A
10:15 am 10:15 Cloudy with Light Rain 68 20 N/A N/A WSW 3 6 29.98 1015 2 3 0.01 0.25
10:35 am 10:35 Cloudy with Drizzle 68 20 N/A N/A WSW 5 7 29.99 1016 2 3 0.02 0.51
10:55 am 10:55 Cloudy with Drizzle 68 20 N/A N/A N N/A 29.99 1016 3 4 0.03 0.76
11:15 am 11:15 Cloudy with Light Rain 68 20 N/A N/A N N/A 29.99 1016 3 5 N/A
11:35 am 11:35 Cloudy with Light Rain 70 21 N/A N/A NNW 5 7 29.99 1016 10 16 0.01 0.25
11:55 am 11:55 Cloudy 70 21 N/A N/A NE 5 7 29.98 1015 10 16 0.01 0.25
12:15 pm 12:15 Cloudy 70 21 70 21 100 100 N 3 6 29.99 1016 10 16 N/A
12:35 pm 12:35 Cloudy with Light Rain 70 21 69 20.5 97 97 NE 3 6 29.99 1016 10 16 N/A
12:55 pm 12:55 Cloudy with Light Rain 70 21.1 70 21 99 99 N 6 9 29.98 1015 10 16 N/A
1:15 pm 13:15 Cloudy 70 21 70 20.9 99 99 NNE 7 11 29.97 1015 10 16 N/A
1:35 pm 13:35 Cloudy 70 21 70 21 100 100 N 7 11 29.99 1016 10 16 N/A
1:55 pm 13:55 Cloudy 69 20.8 69 20.7 99 99 NNW 5 7 29.99 1016 10 16 N/A
2:15 pm 14:15 Cloudy 72 22 69 20.8 93 93 N 9 15 29.99 1016 10 16 N/A
2:35 pm 14:35 Cloudy 73 22.5 68 20 86 86 N 9 15 29.99 1016 10 16 N/A
2:55 pm 14:55 Cloudy 73 22.7 67 19.7 83 83 N 8 13 29.99 1016 10 16 N/A
3:15 pm 15:15 Mostly Cloudy 74 23.1 67 19.7 81 81 NNW 7 11 29.98 1015 10 16 N/A
3:35 pm 15:35 Partly Cloudy 74 23.2 66 19.1 78 78 N 8 13 29.98 1015 10 16 N/A
3:55 pm 15:55 Partly Cloudy 76 24.2 67 19.6 76 76 N 8 13 29.97 1015 10 16 N/A
4:15 pm 16:15 Sunny 76 24.2 65 18.5 71 71 NNW 10 17 29.96 1015 10 16 N/A
4:35 pm 16:35 Sunny 76 24.5 64 17.5 65 65 N 8 13 29.96 1015 10 16 N/A
4:55 pm 16:55 Sunny 75 24 63 17.3 66 66 NNE 10 17 29.97 1015 10 16 N/A
5:15 pm 17:15 Sunny 75 24 62 16.6 63 63 N 10 17 29.97 1015 10 16 N/A
5:35 pm 17:35 Sunny 76 24.2 62 16.8 63 63 N 10 17 29.96 1015 10 16 N/A
5:55 pm 17:55 Sunny 75 23.9 62 16.4 63 63 N 6 9 29.98 1015 10 16 N/A
6:15 pm 18:15 Sunny 73 23 62 16.6 67 67 NNE 7 11 29.99 1015 10 16 N/A
6:35 pm 18:35 Sunny 75 23.8 62 16.7 65 65 NE 6 9 29.99 1015 10 16 N/A
6:55 pm 18:55 Sunny 74 23.4 62 16.8 67 67 ENE 7 11 29.99 1015 10 16 N/A
7:15 pm 19:15 Sunny 73 22.7 63 17 70 70 NE 5 7 30.00 1016 10 16 N/A
7:35 pm 19:35 Sunny 71 21.5 64 17.6 79 79 N N/A 30.00 1016 10 16 N/A
7:55 pm 19:55 Clear 67 19.7 66 19.1 96 96 NNW 3 6 30.01 1016 10 16 N/A
8:15 pm 20:15 Clear 66 19 66 19 100 100 N N/A 30.02 1016 10 16 N/A
8:35 pm 20:35 Clear 64 18 N/A N/A N N/A 30.02 1017 10 16 N/A
8:55 pm 20:55 Clear 63 17 N/A N/A N N/A 30.03 1017 10 16 N/A
9:15 pm 21:15 Clear 63 17 N/A N/A N N/A 30.04 1017 10 16 N/A
9:35 pm 21:35 Clear 63 17 N/A N/A N 5 7 30.04 1017 10 16 N/A
9:55 pm 21:55 Clear 63 17 N/A N/A ENE 5 7 30.05 1018 10 16 N/A
10:15 pm 22:15 Clear 63 17 N/A N/A N 6 9 30.06 1018 10 16 N/A
10:35 pm 22:35 Clear 64 18 N/A N/A N N/A 30.06 1018 10 16 N/A
10:55 pm 22:55 Clear 63 17 N/A N/A N 3 6 30.06 1018 10 16 N/A
11:15 pm 23:15 Clear 61 16 N/A N/A N 3 6 30.06 1018 10 16 N/A
11:35 pm 23:35 Clear 61 16 N/A N/A NNE 3 6 30.06 1018 10 16 N/A
11:55 pm 23:55 Clear 59 15 N/A N/A NNW 3 6 30.08 1019 7 11 N/A

Powered by AerisWeather